COSMOS 1766

Satellite information

Favourite Embed

Satellite Type and Status

PAYLOADIN ORBIT

Key statistics

Satellite COSMOS 1766 at a glance.

Uptime

14286

Days in orbit

Revolutions

≈ 15.4

Per day

Orbit

LEO

Low Earth Orbit

Inclination

82.5

Latest

Satellite identification and parameters

Extended collection of information and parameters for COSMOS 1766.

Object identification

Identified? True

Debris? False

Object name: COSMOS 1766

International designator: 1986-055A

Object number (NORAD): 16881

Object ID (CCSDS): 16881

Country: COMMONWEALTH OF INDEPENDENT STATES (CIS)

Current information (Y/N): Y

RCS size: LARGE

Orbital parameters

Period: 93.45 minutes

Inclination: 82.4923 deg

SMA: 6821.48 km

Apoapsis: 450.217 km

Periapsis: 436.474 km

RAAN: 299.0145 deg

Eccentricy: 0.00100736

Argument of periapsis: 124.8325 deg

Mean anomaly: 235.387 deg

Mean motion: 15.40936702 rev/day

Mean motion (dot): 0.0002398 rev/day2

B* drag term: 0.00058017027 1/REarth

Two-line elements (TLE)

Creation date: Sept. 7, 2025, 3:09 a.m.

Reference frame: TEME

Reference center: EARTH

Epoch: Sept. 6, 2025, 8:45 p.m. UTC

TLE line 0: 0 COSMOS 1766

TLE line 1: 1 16881U 86055A 25249.86501087 .00023980 00000-0 58017-3 0 9991

TLE line 2: 2 16881 82.4923 299.0145 0010074 124.8325 235.3870 15.40936702115216

Live tracking on map

Real-time ground track for satellite COSMOS 1766.

In-orbit conjunctions

A list of the most updated potential collisions computed for object COSMOS 1766.

Target Orbit TCA Probability of collision Miss distance Type
CZ-4B R/B SSO 2024-07-02 20:46:18 0.001791751 113.0 (m) ROCKET BODY

Associated space launch

Ocean observation satellite

COSMOS 1766 was lifted into orbit during the mission ‘Tsiklon-3 | Okean-O1 1’, on board a Tsiklon-3 space rocket.

The launch took place on July 28, 1986, 9:07 p.m. from 32/2.

For more information about the launch, click the button.

Launch to space Tsiklon-3 | Okean-O1 1
Tsiklon-3 | Okean-O1 1

Agency: N/A

Status: Launch Successful

Launch date: July 28, 1986, 9:07 p.m. UTC

Rocket: Tsiklon-3

Launch pad: 32/2

Location: Plesetsk Cosmodrome, Russian Federation

...

Latest news about this satellite

There are no fresh news available about this satellite. Check back as we update our databases every day.


Newsletter sign-up

Weekly statistics, charts and insights to help you stay on top of the space industry.